Weather History for Lawrence, MA

Change the Weather History Date:

Thursday, September 5, 2013

  Actual Average Record
Temperature  
Mean Temperature 62 °F -  
Max Temperature 71 °F 76 °F 90 °F (1953)
Min Temperature 54 °F 55 °F 44 °F (2000)
Degree Days  
Heating Degree Days 2    
Growing Degree Days 12 (Base 50)    
Moisture  
Dew Point 48 °F    
Average Humidity 59    
Maximum Humidity 84    
Minimum Humidity 31    
Precipitation  
Precipitation 0.04 in - - ()
Sea Level Pressure  
Sea Level Pressure 29.99 in    
Wind  
Wind Speed 6 mph (NW)    
Max Wind Speed 12 mph    
Max Gust Speed 20 mph    
Visibility 10 miles    
Events Rain    
Averages and records for this station are not official NWS values.
T = Trace of Precipitation, MM = Missing Value Source: NWS Daily Summary

Daily Weather History Graph

Daily Weather History Graph

Search for Another Location

Airport:

Trip Planner

Search our weather history database for the weather conditions in past years. The results will help you decide how hot, cold, wet, or windy it might be!

Date:

Astronomy

Sep. 05, 2013 Rise Set
Actual Time 6:13 AM EDT 7:11 PM EDT
Civil Twilight 5:44 AM EDT 7:40 PM EDT
Nautical Twilight 5:10 AM EDT 8:14 PM EDT
Astronomical Twilight 4:34 AM EDT 8:50 PM EDT
Moon 6:23 AM EDT (9/5) 6:59 PM EDT (9/5)
Length of Visible Light 13h 55m
Length of Day
12h 57m
New Moon, 0% of the Moon is Illuminated
Sep 5
New Moon
Sep 12
First Quarter
Sep 19
Full
Sep 26
Last Quarter
Oct 4
New

Hourly Weather History & Observations

Time (EDT) Temp. Dew Point Humidity Pressure Visibility Wind Dir Wind Speed Gust Speed Precip Events Conditions
12:54 AM 64.9 °F 53.1 °F 65% 29.90 in 10.0 mi SSW 5.8 mph - N/A   Partly Cloudy
1:54 AM 64.9 °F 54.0 °F 68% 29.89 in 10.0 mi SSW 6.9 mph - N/A   Overcast
2:54 AM 64.0 °F 54.0 °F 70% 29.90 in 10.0 mi South 4.6 mph - N/A   Mostly Cloudy
3:54 AM 64.9 °F 55.0 °F 70% 29.88 in 10.0 mi South 4.6 mph - N/A   Mostly Cloudy
4:54 AM 64.0 °F 55.9 °F 75% 29.88 in 10.0 mi SW 6.9 mph - N/A   Overcast
5:54 AM 64.9 °F 55.9 °F 73% 29.89 in 10.0 mi SW 6.9 mph - N/A   Scattered Clouds
6:54 AM 64.9 °F 57.0 °F 75% 29.90 in 10.0 mi SSW 3.5 mph - 0.00 in   Scattered Clouds
7:54 AM 64.9 °F 57.9 °F 78% 29.93 in 9.0 mi Calm Calm - 0.01 in Rain Light Rain
8:54 AM 64.9 °F 60.1 °F 84% 29.96 in 10.0 mi Calm Calm - 0.03 in   Overcast
9:54 AM 64.9 °F 57.0 °F 75% 29.98 in 10.0 mi NNW 5.8 mph - 0.00 in   Overcast
10:54 AM 66.9 °F 57.0 °F 70% 29.98 in 10.0 mi NNE 6.9 mph - N/A   Partly Cloudy
11:04 AM 66.2 °F 57.2 °F 73% 29.98 in 10.0 mi North 6.9 mph - N/A   Mostly Cloudy
11:54 AM 66.9 °F 53.1 °F 61% 30.00 in 10.0 mi North 8.1 mph - N/A   Mostly Cloudy
12:54 PM 70.0 °F 50.0 °F 49% 29.99 in 10.0 mi North 9.2 mph - N/A   Scattered Clouds
1:54 PM 69.1 °F 42.1 °F 38% 29.99 in 10.0 mi NW 9.2 mph - N/A   Mostly Cloudy
2:54 PM 70.0 °F 39.9 °F 33% 30.00 in 10.0 mi North 9.2 mph 16.1 mph N/A   Clear
3:54 PM 70.0 °F 37.9 °F 31% 30.02 in 10.0 mi NW 11.5 mph 19.6 mph N/A   Scattered Clouds
4:54 PM 70.0 °F 37.9 °F 31% 30.02 in 10.0 mi NW 11.5 mph 18.4 mph N/A   Clear
5:54 PM 68.0 °F 37.0 °F 32% 30.04 in 10.0 mi NW 10.4 mph - N/A   Mostly Cloudy
6:54 PM 64.9 °F 39.0 °F 39% 30.06 in 10.0 mi North 5.8 mph - N/A   Scattered Clouds
7:54 PM 60.1 °F 39.0 °F 46% 30.09 in 10.0 mi North 4.6 mph - N/A   Clear
8:54 PM 57.9 °F 39.9 °F 51% 30.12 in 10.0 mi North 4.6 mph - N/A   Clear
9:54 PM 55.9 °F 42.1 °F 60% 30.14 in 10.0 mi North 3.5 mph - N/A   Clear
10:54 PM 55.0 °F 41.0 °F 59% 30.15 in 10.0 mi North 5.8 mph - N/A   Clear
11:54 PM 54.0 °F 39.0 °F 57% 30.17 in 10.0 mi North 6.9 mph - N/A   Clear